Weather History for Johnstown, PA

Change the Weather History Date:

Saturday, November 23, 2013

  Actual Average Record
Temperature  
Mean Temperature 24 °F 36 °F  
Max Temperature 33 °F 42 °F 69 °F (1931)
Min Temperature 14 °F 31 °F 11 °F (2000)
Degree Days  
Heating Degree Days 41 29  
Month to date heating degree days 618 551  
Since 1 July heating degree days 1327 1244  
Cooling Degree Days 0 0  
Month to date cooling degree days 0 0  
Year to date cooling degree days 393 382  
Moisture  
Dew Point 18 °F    
Average Humidity 73    
Maximum Humidity 92    
Minimum Humidity 53    
Precipitation  
Precipitation T in 0.13 in 0.91 in (1934)
Month to date precipitation 1.25 2.78  
Year to date precipitation 32.90 30.13  
Sea Level Pressure  
Sea Level Pressure 30.13 in    
Wind  
Wind Speed 18 mph (WNW)    
Max Wind Speed 30 mph    
Max Gust Speed 40 mph    
Visibility 8 miles    
Events Fog , Snow    
T = Trace of Precipitation, MM = Missing Value Source: NWS Daily Summary

Daily Weather History Graph

Daily Weather History Graph

Search for Another Location

Airport:

Trip Planner

Search our weather history database for the weather conditions in past years. The results will help you decide how hot, cold, wet, or windy it might be!

Date:

Astronomy

Nov. 23, 2013 Rise Set
Actual Time 7:10 AM EST 4:52 PM EST
Civil Twilight 6:40 AM EST 5:22 PM EST
Nautical Twilight 6:07 AM EST 5:55 PM EST
Astronomical Twilight 5:34 AM EST 6:28 PM EST
Moon 10:19 PM EST (11/23) 11:26 AM EST (11/23)
Length of Visible Light 10h 41m
Length of Day
9h 42m
Waning Gibbous, 70% of the Moon is Illuminated
Nov 23
Waning Gibbous
Nov 25
Last Quarter
Dec 2
New
Dec 9
First Quarter
Dec 17
Full

Hourly Weather History & Observations

Time (EST) Temp. Windchill Dew Point Humidity Pressure Visibility Wind Dir Wind Speed Gust Speed Precip Events Conditions
12:24 AM 32.0 °F 21.6 °F 27.0 °F 82% 30.12 in 10.0 mi NNW 15.0 mph 28.8 mph N/A   Mostly Cloudy
12:54 AM 32.0 °F 25.6 °F 27.0 °F 82% 30.17 in 10.0 mi Variable 6.9 mph - N/A   Overcast
1:11 AM 30.9 °F 21.7 °F 28.0 °F 89% 30.13 in 10.0 mi WNW 11.5 mph - N/A   Overcast
1:54 AM 30.0 °F 20.0 °F 26.1 °F 85% 30.17 in 10.0 mi NW 12.7 mph - N/A   Overcast
2:22 AM 30.0 °F 17.2 °F 25.0 °F 82% 30.14 in 10.0 mi NW 20.7 mph 25.3 mph N/A   Overcast
2:54 AM 30.0 °F 17.5 °F 24.1 °F 79% 30.19 in 10.0 mi WNW 19.6 mph - N/A   Overcast
3:24 AM 28.9 °F 16.9 °F 25.0 °F 85% 30.14 in 10.0 mi WNW 17.3 mph - N/A   Overcast
3:54 AM 28.0 °F 16.1 °F 23.0 °F 81% 30.18 in 10.0 mi NW 16.1 mph - N/A   Overcast
4:03 AM 28.0 °F 16.1 °F 23.0 °F 81% 30.13 in 10.0 mi NW 16.1 mph - N/A   Mostly Cloudy
4:36 AM 27.0 °F 15.2 °F 21.9 °F 81% 30.13 in 10.0 mi NW 15.0 mph - N/A   Scattered Clouds
4:54 AM 27.0 °F 17.3 °F 23.0 °F 85% 30.18 in 10.0 mi NW 10.4 mph - N/A   Mostly Cloudy
5:43 AM 27.0 °F 18.0 °F 23.0 °F 85% 30.13 in 10.0 mi WNW 9.2 mph - N/A   Overcast
5:54 AM 27.0 °F 17.3 °F 23.0 °F 85% 30.19 in 10.0 mi WNW 10.4 mph - N/A   Overcast
6:54 AM 26.1 °F 14.0 °F 21.0 °F 81% 30.19 in 10.0 mi WNW 15.0 mph 20.7 mph N/A   Mostly Cloudy
7:05 AM 26.1 °F 14.5 °F 21.0 °F 81% 30.14 in 10.0 mi WNW 13.8 mph - N/A   Scattered Clouds
7:18 AM 26.1 °F 13.6 °F 19.9 °F 78% 30.14 in 10.0 mi WNW 16.1 mph - N/A   Mostly Cloudy
7:54 AM 26.1 °F 13.1 °F 19.9 °F 78% 30.22 in 10.0 mi WNW 17.3 mph - N/A   Mostly Cloudy
8:54 AM 27.0 °F 15.6 °F 21.0 °F 78% 30.20 in 10.0 mi West 13.8 mph - N/A   Overcast
9:54 AM 27.0 °F 14.3 °F 21.0 °F 78% 30.20 in 10.0 mi WNW 17.3 mph 26.5 mph N/A   Overcast
10:54 AM 28.0 °F 16.1 °F 21.9 °F 78% 30.18 in 9.0 mi West 16.1 mph 24.2 mph 0.00 in   Overcast
11:54 AM 28.9 °F 15.8 °F 19.9 °F 69% 30.16 in 10.0 mi West 20.7 mph 29.9 mph 0.00 in   Mostly Cloudy
12:04 PM 30.0 °F 19.1 °F 19.9 °F 66% 30.08 in 10.0 mi West 15.0 mph 27.6 mph N/A   Mostly Cloudy
12:46 PM 30.0 °F 16.9 °F 18.0 °F 61% 30.04 in 10.0 mi West 21.9 mph 26.5 mph N/A   Mostly Cloudy
12:54 PM 30.0 °F 17.9 °F 17.1 °F 59% 30.11 in 10.0 mi WSW 18.4 mph 28.8 mph N/A   Scattered Clouds
1:54 PM 30.0 °F 17.9 °F 15.1 °F 54% 30.09 in 10.0 mi West 18.4 mph 25.3 mph N/A   Mostly Cloudy
2:54 PM 30.0 °F 17.9 °F 16.0 °F 56% 30.08 in 10.0 mi West 18.4 mph 28.8 mph N/A   Overcast
3:54 PM 28.9 °F 16.1 °F 15.1 °F 56% 30.09 in 10.0 mi West 19.6 mph 34.5 mph N/A   Overcast
4:19 PM 26.1 °F 11.3 °F 19.9 °F 78% 30.03 in 1.8 mi NW 23.0 mph 32.2 mph 0.00 in Snow Light Snow
4:25 PM 25.0 °F 10.6 °F 21.0 °F 85% 30.04 in 0.8 mi NW 20.7 mph 32.2 mph 0.00 in Snow Light Snow
4:35 PM 24.1 °F 7.7 °F 21.9 °F 91% 30.04 in 0.5 mi WNW 26.5 mph 35.7 mph 0.00 in Fog , Snow Snow
4:41 PM 24.1 °F 9.4 °F 21.0 °F 88% 30.04 in 0.2 mi WNW 20.7 mph 35.7 mph 0.00 in Fog , Snow Heavy Snow
4:50 PM 24.8 °F 10.7 °F 21.2 °F 86% 30.04 in 0.5 mi WNW 19.6 mph 29.9 mph 0.00 in Fog , Snow Snow
4:51 PM 24.1 °F 9.0 °F 21.0 °F 88% 30.13 in 0.5 mi WNW 21.9 mph 31.1 mph 0.00 in Fog , Snow Snow
5:13 PM 23.0 °F 8.3 °F 21.0 °F 92% 30.04 in 1.8 mi WNW 19.6 mph 32.2 mph 0.00 in Snow Light Snow
5:29 PM 23.0 °F 8.3 °F 19.9 °F 88% 30.05 in 0.8 mi WNW 19.6 mph 35.7 mph 0.00 in Snow Light Snow
5:37 PM 23.0 °F 8.7 °F 19.9 °F 88% 30.05 in 2.0 mi WNW 18.4 mph 31.1 mph 0.00 in Snow Light Snow
5:49 PM 21.2 °F 3.9 °F 19.4 °F 93% 30.06 in 0.8 mi WNW 26.5 mph 38.0 mph 0.00 in Snow Light Snow
5:54 PM 21.9 °F 6.5 °F 19.0 °F 89% 30.15 in 0.5 mi WNW 20.7 mph 38.0 mph 0.00 in Fog , Snow Snow
6:01 PM 21.9 °F 7.8 °F 19.0 °F 89% 30.06 in 1.0 mi NW 17.3 mph 32.2 mph 0.00 in Snow Light Snow
6:20 PM 21.0 °F 5.0 °F 17.1 °F 85% 30.07 in 3.0 mi NW 21.9 mph 28.8 mph 0.00 in Snow Light Snow
6:23 PM 21.0 °F 7.1 °F 17.1 °F 85% 30.07 in 5.0 mi NW 16.1 mph 28.8 mph 0.00 in Snow Light Snow
6:54 PM 21.9 °F 5.8 °F 15.1 °F 75% 30.16 in 10.0 mi NW 23.0 mph 28.8 mph 0.00 in   Overcast
7:36 PM 19.9 °F 1.3 °F 10.0 °F 65% 30.08 in 10.0 mi NW 29.9 mph 40.3 mph 0.00 in   Overcast
7:54 PM 19.9 °F 2.5 °F 10.9 °F 68% 30.19 in 10.0 mi NW 25.3 mph 36.8 mph 0.00 in   Overcast
8:23 PM 19.0 °F 3.6 °F 10.9 °F 71% 30.10 in 10.0 mi WNW 18.4 mph 25.3 mph N/A   Overcast
8:54 PM 18.0 °F 0.2 °F 9.0 °F 68% 30.22 in 10.0 mi NW 24.2 mph 35.7 mph N/A   Mostly Cloudy
9:04 PM 18.0 °F 0.6 °F 8.1 °F 65% 30.12 in 10.0 mi NW 23.0 mph 33.4 mph N/A   Mostly Cloudy
9:11 PM 17.1 °F -2.0 °F 8.1 °F 68% 30.12 in 10.0 mi WNW 27.6 mph 34.5 mph N/A   Scattered Clouds
9:54 PM 17.1 °F 1.5 °F 8.1 °F 68% 30.24 in 10.0 mi NW 17.3 mph - N/A   Mostly Cloudy
10:15 PM 16.0 °F -2.8 °F 5.0 °F 62% 30.13 in 10.0 mi WNW 25.3 mph 33.4 mph N/A   Scattered Clouds
10:54 PM 15.1 °F -1.6 °F 6.1 °F 68% 30.25 in 10.0 mi WNW 18.4 mph - N/A   Scattered Clouds
11:01 PM 15.1 °F -1.6 °F 5.0 °F 64% 30.14 in 10.0 mi WNW 18.4 mph 26.5 mph N/A   Mostly Cloudy
11:26 PM 14.0 °F -2.0 °F 3.9 °F 64% 30.15 in 10.0 mi WNW 16.1 mph 28.8 mph N/A   Scattered Clouds
11:54 PM 14.0 °F -4.7 °F 3.0 °F 62% 30.26 in 10.0 mi WNW 23.0 mph 29.9 mph N/A   Partly Cloudy